Flag for U.S.A. Weather past 2 weeks in Lexington, Virginia, U.S.A.

Now
71 °F

Sunny.


Feels Like: 76 °F
Forecast: 64 / 87 °F
Wind: 7 mph from Southwest

Location: Hot Springs / Ingalls

Current Time: May 30, 2015 at 7:37:24 PM

Latest Report: May 30, 2015 at 7:15 PM


Visibility: 10 mi

Pressure: 30.21 "Hg

Humidity: 58%

Dew point: 55 °F

Location of LexingtonLocation

Historic Weather in Lexington — Graph

°F

Lexington temperature yesterday

Maximum temperature yesterday: 75 °F (at 4:35 PM)
Minimum temperature yesterday: 62 °F (at 5:35 AM)
Average temperature yesterday: 66 °F

Past Weeks' High & Low Weather Summary

 TemperatureHumidityPressure
High76 °F (May 18, 3:35 PM)100% (May 15, 9:15 PM)30.48 "Hg (May 15, 9:15 PM)
Low39 °F (May 22, 6:15 AM)24% (May 20, 5:10 PM)29.91 "Hg (May 21, 2:35 PM)
Average62 °F77%30.25 "Hg
* Reported May 15 6:15 PM — May 30 6:15 PM, Lexington, Weather by CustomWeather, © 2015

Note: Actual official high and low records may vary slightly from our data, if they occured in-between our weather recording intervals... More about our weather records

Advertising

Lexington weather history for previous 24 hours

 ConditionsComfort  
Time TempWeatherWind HumidityBarometerVisibility
6:15 PM
Sat, May 30
72 °FPartly sunny.8 mph60%30.21 "Hg10 mi
5:15 PM71 °FPartly sunny.8 mph65%30.22 "Hg10 mi
4:55 PM72 °FScattered clouds.8 mph64%30.22 "Hg10 mi
4:35 PM72 °FScattered clouds.10 mph62%30.22 "Hg10 mi
4:15 PM72 °FMore clouds than sun.8 mph62%30.22 "Hg10 mi
3:55 PM71 °FMore clouds than sun.9 mph62%30.23 "Hg10 mi
3:15 PM72 °FScattered clouds.9 mph64%30.25 "Hg10 mi
2:55 PM72 °FCloudy.7 mph68%30.26 "Hg10 mi
2:35 PM70 °FCloudy.9 mph70%30.26 "Hg10 mi
2:15 PM70 °FBroken clouds.6 mph71%30.26 "Hg10 mi
1:55 PM72 °FBroken clouds.7 mph69%30.27 "Hg10 mi
1:35 PM71 °FBroken clouds.9 mph74%30.28 "Hg10 mi
1:15 PM69 °FBroken clouds.6 mph82%30.28 "Hg10 mi
12:55 PM68 °FScattered clouds.7 mph87%30.29 "Hg10 mi
12:35 PM66 °FLight rain. Cloudy.7 mph83%30.29 "Hg2 mi
12:15 PM68 °FMostly cloudy.6 mph73%30.30 "Hg10 mi
11:55 AM67 °FCloudy.6 mph73%30.31 "Hg10 mi
11:35 AM68 °FCloudy.No wind82%30.31 "Hg10 mi
11:15 AM69 °FCloudy.5 mph70%30.30 "Hg10 mi
10:55 AM68 °FCloudy.3 mph78%30.31 "Hg10 mi
10:35 AM67 °FCloudy.5 mph77%30.31 "Hg10 mi
10:15 AM67 °FBroken clouds.8 mph80%30.31 "Hg10 mi
9:55 AM69 °FScattered clouds.8 mph75%30.31 "Hg10 mi
9:15 AM67 °FBroken clouds.8 mph78%30.31 "Hg10 mi
8:55 AM67 °FPartly sunny.7 mph78%30.31 "Hg10 mi
8:15 AM65 °FBroken clouds.7 mph82%30.31 "Hg10 mi
7:55 AM65 °FMore clouds than sun.6 mph80%30.30 "Hg10 mi
7:35 AM65 °FMostly cloudy.6 mph80%30.30 "Hg10 mi
7:15 AM64 °FMore clouds than sun.6 mph82%30.30 "Hg10 mi
6:55 AM64 °FMostly cloudy.7 mph81%30.29 "Hg10 mi
6:35 AM63 °FMostly cloudy.5 mph81%30.29 "Hg10 mi
6:15 AM64 °FMostly cloudy.9 mph74%30.29 "Hg10 mi
5:55 AM63 °FOvercast.9 mph82%30.28 "Hg10 mi
5:35 AM63 °FOvercast.8 mph87%30.28 "Hg10 mi
5:15 AM63 °FOvercast.9 mph85%30.28 "Hg10 mi
4:55 AM63 °FOvercast.9 mph98%30.28 "Hg10 mi
4:35 AM63 °FMostly cloudy.6 mph100%30.28 "Hg7 mi
4:15 AM63 °FOvercast.5 mph100%30.28 "Hg7 mi
3:55 AM63 °FFog.6 mph100%30.28 "Hg5 mi
3:15 AM64 °FFog.7 mph100%30.28 "Hg5 mi
2:55 AM63 °FFog.6 mph100%30.28 "Hg5 mi
2:35 AM63 °FFog.7 mph100%30.28 "Hg4 mi
2:15 AM63 °FFog.8 mph100%30.28 "Hg2 mi
1:55 AM63 °FFog.7 mph100%30.29 "Hg3 mi
1:35 AM63 °FFog.7 mph100%30.29 "Hg5 mi
1:15 AM63 °FOvercast.6 mph100%30.29 "Hg7 mi
12:55 AM64 °FPassing clouds.7 mph99%30.29 "Hg10 mi
12:35 AM63 °FPassing clouds.7 mph99%30.30 "Hg10 mi
12:15 AM63 °FClear.6 mph99%30.30 "Hg10 mi
11:35 PM
Fri, May 29
63 °FClear.8 mph99%30.30 "Hg10 mi
11:15 PM63 °FClear.7 mph99%30.30 "Hg10 mi
10:55 PM63 °FClear.8 mph97%30.31 "Hg10 mi
10:35 PM63 °FClear.6 mph96%30.31 "Hg10 mi
10:15 PM63 °FClear.6 mph96%30.31 "Hg10 mi
9:55 PM64 °FClear.6 mph96%30.32 "Hg10 mi
9:35 PM64 °FClear.6 mph96%30.31 "Hg10 mi
9:15 PM64 °FSunny.3 mph100%30.31 "Hg7 mi
8:55 PM64 °FBroken clouds.5 mph97%30.31 "Hg10 mi
8:35 PM65 °FThundershowers. More clouds than sun.6 mph96%30.31 "Hg10 mi
8:15 PM65 °FRain. Cloudy.7 mph95%30.31 "Hg7 mi
7:55 PM68 °FThundershowers. Broken clouds.6 mph77%30.31 "Hg10 mi
7:35 PM67 °FThunderstorms. Broken clouds.No wind79%30.31 "Hg10 mi
7:15 PM70 °FBroken clouds.9 mph69%30.30 "Hg10 mi
Weather by CustomWeather, © 2015

See weather overviewHow to use our weather pages